Time,TemperatureF,DewpointF,PressureIn,WindDirection,WindDirectionDegrees,WindSpeedMPH,WindSpeedGustMPH,Humidity,HourlyPrecipIn,Conditions,Clouds,dailyrainin,SoftwareType,DateUTC
2013-03-07 00:02:00,37.9,28.7,29.89,ESE,112,0.0,-999.0,69,-99.99,,,0.00,Acu-Link.com,2013-03-07 05:02:00,
2013-03-07 00:17:00,38.1,28.5,29.87,North,0,3.7,-999.0,68,-99.99,,,0.00,Acu-Link.com,2013-03-07 05:17:00,
2013-03-07 00:32:00,38.1,28.5,29.87,East,90,2.7,-999.0,68,-99.99,,,0.00,Acu-Link.com,2013-03-07 05:32:00,
2013-03-07 00:47:00,37.9,28.3,29.87,West,270,2.2,-999.0,68,-99.99,,,0.00,Acu-Link.com,2013-03-07 05:47:00,
2013-03-07 01:02:00,38.1,28.5,29.88,WNW,292,1.1,-999.0,68,-99.99,,,0.00,Acu-Link.com,2013-03-07 06:02:00,
2013-03-07 01:17:00,37.9,28.3,29.89,ENE,67,5.8,-999.0,68,-99.99,,,0.00,Acu-Link.com,2013-03-07 06:17:00,
2013-03-07 01:32:00,37.9,28.3,29.89,WSW,247,3.7,-999.0,68,-99.99,,,0.00,Acu-Link.com,2013-03-07 06:32:00,
2013-03-07 01:47:00,37.9,27.9,29.90,NNE,22,1.7,-999.0,67,-99.99,,,0.00,Acu-Link.com,2013-03-07 06:47:00,
2013-03-07 02:03:00,37.9,28.3,29.90,WSW,247,2.7,-999.0,68,-99.99,,,0.00,Acu-Link.com,2013-03-07 07:03:00,
2013-03-07 02:18:00,37.9,28.3,29.90,West,270,2.7,-999.0,68,-99.99,,,0.00,Acu-Link.com,2013-03-07 07:18:00,
2013-03-07 02:33:00,37.9,28.3,29.89,West,270,2.7,-999.0,68,-99.99,,,0.00,Acu-Link.com,2013-03-07 07:33:00,
2013-03-07 02:48:00,37.9,28.3,29.87,West,270,2.7,-999.0,68,-99.99,,,0.00,Acu-Link.com,2013-03-07 07:48:00,
2013-03-07 03:03:00,37.8,28.2,29.87,West,270,2.7,-999.0,68,-99.99,,,0.00,Acu-Link.com,2013-03-07 08:03:00,
2013-03-07 03:18:00,37.8,27.8,29.88,SW,225,3.7,-999.0,67,-99.99,,,0.00,Acu-Link.com,2013-03-07 08:18:00,
2013-03-07 03:33:00,37.8,27.8,29.89,South,180,2.7,-999.0,67,-99.99,,,0.00,Acu-Link.com,2013-03-07 08:33:00,
2013-03-07 03:48:00,37.6,28.4,29.90,East,90,2.7,-999.0,69,-99.99,,,0.00,Acu-Link.com,2013-03-07 08:48:00,
2013-03-07 04:03:00,37.6,28.0,29.90,ESE,112,3.7,-999.0,68,-99.99,,,0.00,Acu-Link.com,2013-03-07 09:03:00,
2013-03-07 04:19:00,37.6,28.0,29.91,North,0,2.2,-999.0,68,-99.99,,,0.00,Acu-Link.com,2013-03-07 09:19:00,
2013-03-07 04:34:00,37.6,28.4,29.92,East,90,4.7,-999.0,69,-99.99,,,0.00,Acu-Link.com,2013-03-07 09:34:00,
2013-03-07 04:49:00,37.6,28.4,29.92,ENE,67,4.2,-999.0,69,-99.99,,,0.00,Acu-Link.com,2013-03-07 09:49:00,
2013-03-07 05:19:00,37.4,28.2,29.91,NE,45,3.7,-999.0,69,-99.99,,,0.00,Acu-Link.com,2013-03-07 10:19:00,
2013-03-07 05:34:00,37.2,28.3,29.92,SW,225,2.2,-999.0,70,-99.99,,,0.00,Acu-Link.com,2013-03-07 10:34:00,
2013-03-07 05:50:00,37.2,28.3,29.93,NW,315,5.3,-999.0,70,-99.99,,,0.00,Acu-Link.com,2013-03-07 10:50:00,
2013-03-07 06:05:00,37.0,28.1,29.95,North,0,3.7,-999.0,70,-99.99,,,0.00,Acu-Link.com,2013-03-07 11:05:00,
2013-03-07 06:20:00,37.0,28.1,29.96,WSW,247,3.2,-999.0,70,-99.99,,,0.00,Acu-Link.com,2013-03-07 11:20:00,
2013-03-07 06:35:00,36.9,28.0,29.96,WNW,292,11.4,-999.0,70,-99.99,,,0.00,Acu-Link.com,2013-03-07 11:35:00,
2013-03-07 06:50:00,37.0,27.8,29.96,SSW,202,1.7,-999.0,69,-99.99,,,0.00,Acu-Link.com,2013-03-07 11:50:00,
2013-03-07 07:05:00,36.7,27.9,29.94,East,90,4.7,-999.0,70,-99.99,,,0.00,Acu-Link.com,2013-03-07 12:05:00,
2013-03-07 07:20:00,36.9,28.0,29.94,NNW,337,4.7,-999.0,70,-99.99,,,0.00,Acu-Link.com,2013-03-07 12:20:00,
2013-03-07 07:35:00,36.7,27.9,29.95,SE,135,2.7,-999.0,70,-99.99,,,0.00,Acu-Link.com,2013-03-07 12:35:00,
2013-03-07 07:50:00,37.0,27.8,29.97,SSW,202,6.3,-999.0,69,-99.99,,,0.00,Acu-Link.com,2013-03-07 12:50:00,
2013-03-07 08:21:00,37.2,28.0,29.99,South,180,2.7,-999.0,69,-99.99,,,0.00,Acu-Link.com,2013-03-07 13:21:00,
2013-03-07 08:36:00,37.4,28.2,30.00,NW,315,8.9,-999.0,69,-99.99,,,0.00,Acu-Link.com,2013-03-07 13:36:00,
2013-03-07 08:51:00,37.6,28.0,30.00,NW,315,3.2,-999.0,68,-99.99,,,0.00,Acu-Link.com,2013-03-07 13:51:00,
2013-03-07 09:06:00,37.9,28.3,30.00,SSW,202,5.8,-999.0,68,-99.99,,,0.00,Acu-Link.com,2013-03-07 14:06:00,
2013-03-07 09:21:00,38.1,28.5,29.98,SW,225,3.7,-999.0,68,-99.99,,,0.00,Acu-Link.com,2013-03-07 14:21:00,
2013-03-07 09:36:00,38.3,28.7,29.99,South,180,2.2,-999.0,68,-99.99,,,0.00,Acu-Link.com,2013-03-07 14:36:00,
2013-03-07 09:51:00,38.5,28.5,30.00,NW,315,7.8,-999.0,67,-99.99,,,0.00,Acu-Link.com,2013-03-07 14:51:00,
2013-03-07 10:06:00,37.9,27.9,30.01,West,270,5.3,-999.0,67,-99.99,,,0.00,Acu-Link.com,2013-03-07 15:06:00,
2013-03-07 10:22:00,38.7,28.3,30.01,ENE,67,1.7,-999.0,66,-99.99,,,0.00,Acu-Link.com,2013-03-07 15:22:00,
2013-03-07 10:37:00,39.2,28.8,30.01,SW,225,3.7,-999.0,66,-99.99,,,0.00,Acu-Link.com,2013-03-07 15:37:00,
2013-03-07 10:52:00,39.6,28.1,30.02,West,270,1.7,-999.0,63,-99.99,,,0.00,Acu-Link.com,2013-03-07 15:52:00,
2013-03-07 11:07:00,39.7,28.5,30.01,WNW,292,2.2,-999.0,64,-99.99,,,0.00,Acu-Link.com,2013-03-07 16:07:00,
2013-03-07 11:22:00,39.7,28.5,30.00,SW,225,4.2,-999.0,64,-99.99,,,0.00,Acu-Link.com,2013-03-07 16:22:00,
2013-03-07 11:37:00,39.9,28.3,30.01,NNE,22,3.2,-999.0,63,-99.99,,,0.00,Acu-Link.com,2013-03-07 16:37:00,
2013-03-07 11:52:00,40.8,28.4,30.01,NW,315,9.9,-999.0,61,-99.99,,,0.00,Acu-Link.com,2013-03-07 16:52:00,
2013-03-07 12:07:00,41.2,28.8,30.01,West,270,7.8,-999.0,61,-99.99,,,0.00,Acu-Link.com,2013-03-07 17:07:00,
2013-03-07 12:22:00,40.8,27.6,30.01,West,270,7.3,-999.0,59,-99.99,,,0.00,Acu-Link.com,2013-03-07 17:22:00,
2013-03-07 12:38:00,43.7,29.9,30.01,NNW,337,6.8,-999.0,58,-99.99,,,0.00,Acu-Link.com,2013-03-07 17:38:00,
2013-03-07 12:53:00,43.3,28.7,30.01,West,270,8.9,-999.0,56,-99.99,,,0.00,Acu-Link.com,2013-03-07 17:53:00,
2013-03-07 13:08:00,44.1,29.4,30.00,WNW,292,8.9,-999.0,56,-99.99,,,0.00,Acu-Link.com,2013-03-07 18:08:00,
2013-03-07 13:23:00,44.1,29.4,29.99,SW,225,10.9,-999.0,56,-99.99,,,0.00,Acu-Link.com,2013-03-07 18:23:00,
2013-03-07 13:38:00,45.3,31.0,29.99,SW,225,4.7,-999.0,57,-99.99,,,0.00,Acu-Link.com,2013-03-07 18:38:00,
2013-03-07 13:53:00,44.6,29.4,29.99,West,270,8.3,-999.0,55,-99.99,,,0.00,Acu-Link.com,2013-03-07 18:53:00,
2013-03-07 14:08:00,43.3,28.2,29.99,West,270,7.3,-999.0,55,-99.99,,,0.00,Acu-Link.com,2013-03-07 19:08:00,
2013-03-07 14:23:00,42.3,27.3,29.99,WNW,292,9.4,-999.0,55,-99.99,,,0.00,Acu-Link.com,2013-03-07 19:23:00,
2013-03-07 14:54:00,42.8,26.9,29.97,ESE,112,3.7,-999.0,53,-99.99,,,0.00,Acu-Link.com,2013-03-07 19:54:00,
2013-03-07 15:09:00,42.8,26.4,29.97,West,270,6.8,-999.0,52,-99.99,,,0.00,Acu-Link.com,2013-03-07 20:09:00,
2013-03-07 15:39:00,44.4,26.9,29.98,SSE,157,3.7,-999.0,50,-99.99,,,0.00,Acu-Link.com,2013-03-07 20:39:00,
2013-03-07 15:54:00,44.2,25.8,29.99,NW,315,7.8,-999.0,48,-99.99,,,0.00,Acu-Link.com,2013-03-07 20:54:00,
2013-03-07 16:09:00,45.0,27.5,30.00,NNE,22,3.7,-999.0,50,-99.99,,,0.00,Acu-Link.com,2013-03-07 21:09:00,
2013-03-07 16:24:00,45.0,27.5,30.00,East,90,2.7,-999.0,50,-99.99,,,0.00,Acu-Link.com,2013-03-07 21:24:00,
2013-03-07 16:39:00,44.6,28.1,30.00,WSW,247,2.7,-999.0,52,-99.99,,,0.00,Acu-Link.com,2013-03-07 21:39:00,
2013-03-07 16:54:00,43.0,26.6,30.01,SSW,202,4.2,-999.0,52,-99.99,,,0.00,Acu-Link.com,2013-03-07 21:54:00,
2013-03-07 17:10:00,42.1,26.2,30.01,SW,225,4.7,-999.0,53,-99.99,,,0.00,Acu-Link.com,2013-03-07 22:10:00,
2013-03-07 17:25:00,42.4,25.6,30.01,WSW,247,12.5,-999.0,51,-99.99,,,0.00,Acu-Link.com,2013-03-07 22:25:00,
2013-03-07 17:40:00,41.7,24.9,29.98,West,270,2.7,-999.0,51,-99.99,,,0.00,Acu-Link.com,2013-03-07 22:40:00,
2013-03-07 17:55:00,39.9,25.1,29.99,West,270,3.2,-999.0,55,-99.99,,,0.00,Acu-Link.com,2013-03-07 22:55:00,
2013-03-07 18:10:00,39.2,24.8,30.01,West,270,2.2,-999.0,56,-99.99,,,0.00,Acu-Link.com,2013-03-07 23:10:00,
2013-03-07 18:40:00,38.3,24.8,30.03,WNW,292,4.2,-999.0,58,-99.99,,,0.00,Acu-Link.com,2013-03-07 23:40:00,
2013-03-07 18:55:00,38.5,25.0,30.04,West,270,3.7,-999.0,58,-99.99,,,0.00,Acu-Link.com,2013-03-07 23:55:00,
2013-03-07 19:10:00,37.9,25.3,30.04,West,270,7.3,-999.0,60,-99.99,,,0.00,Acu-Link.com,2013-03-08 00:10:00,
2013-03-07 19:26:00,38.1,25.1,30.05,WSW,247,2.7,-999.0,59,-99.99,,,0.00,Acu-Link.com,2013-03-08 00:26:00,
2013-03-07 19:41:00,38.3,25.6,30.03,West,270,3.2,-999.0,60,-99.99,,,0.00,Acu-Link.com,2013-03-08 00:41:00,
2013-03-07 19:56:00,37.8,25.6,30.03,West,270,3.7,-999.0,61,-99.99,,,0.00,Acu-Link.com,2013-03-08 00:56:00,
2013-03-07 20:11:00,37.9,25.3,30.03,ESE,112,3.2,-999.0,60,-99.99,,,0.00,Acu-Link.com,2013-03-08 01:11:00,
2013-03-07 20:26:00,37.2,25.4,30.03,West,270,0.0,-999.0,62,-99.99,,,0.00,Acu-Link.com,2013-03-08 01:26:00,
2013-03-07 20:41:00,37.2,25.4,30.04,SE,135,2.2,-999.0,62,-99.99,,,0.00,Acu-Link.com,2013-03-08 01:41:00,
2013-03-07 20:56:00,37.8,25.6,30.04,West,270,1.7,-999.0,61,-99.99,,,0.00,Acu-Link.com,2013-03-08 01:56:00,
2013-03-07 21:11:00,37.4,25.6,30.05,NNW,337,2.2,-999.0,62,-99.99,,,0.00,Acu-Link.com,2013-03-08 02:11:00,
2013-03-07 21:26:00,37.9,26.1,30.05,NNW,337,1.7,-999.0,62,-99.99,,,0.00,Acu-Link.com,2013-03-08 02:26:00,
2013-03-07 21:42:00,38.1,26.6,30.06,SW,225,5.8,-999.0,63,-99.99,,,0.00,Acu-Link.com,2013-03-08 02:42:00,
2013-03-07 21:57:00,38.1,26.6,30.06,WSW,247,3.2,-999.0,63,-99.99,,,0.00,Acu-Link.com,2013-03-08 02:57:00,
2013-03-07 22:12:00,38.3,26.8,30.06,West,270,4.7,-999.0,63,-99.99,,,0.00,Acu-Link.com,2013-03-08 03:12:00,
2013-03-07 22:27:00,38.1,26.6,30.06,NW,315,3.7,-999.0,63,-99.99,,,0.00,Acu-Link.com,2013-03-08 03:27:00,
2013-03-07 22:42:00,37.8,26.7,30.06,West,270,2.7,-999.0,64,-99.99,,,0.00,Acu-Link.com,2013-03-08 03:42:00,
2013-03-07 22:57:00,37.8,26.7,30.07,NW,315,2.7,-999.0,64,-99.99,,,0.00,Acu-Link.com,2013-03-08 03:57:00,
2013-03-07 23:12:00,38.1,26.3,30.07,West,270,3.7,-999.0,62,-99.99,,,0.00,Acu-Link.com,2013-03-08 04:12:00,
2013-03-07 23:27:00,38.3,26.4,30.04,WNW,292,5.3,-999.0,62,-99.99,,,0.00,Acu-Link.com,2013-03-08 04:27:00,
2013-03-07 23:42:00,38.5,26.2,30.04,WSW,247,4.7,-999.0,61,-99.99,,,0.00,Acu-Link.com,2013-03-08 04:42:00,
2013-03-07 23:58:00,38.3,26.0,30.04,West,270,6.8,-999.0,61,-99.99,,,0.00,Acu-Link.com,2013-03-08 04:58:00,